Stations météo

réclame
Mon MeteoGroup
Norrkoping, Suède (2574): Température de l'air & dewpoint: 12.06.2018 15:00:00 - 18.06.2018 15:00:00 (CEST)Norrkoping, Suède (2574): Vitesse du vent & gusts: 12.06.2018 15:00:00 - 18.06.2018 15:00:00 (CEST)Norrkoping, Suède (2574): Direction du vent: 12.06.2018 15:00:00 - 18.06.2018 15:00:00 (CEST)Norrkoping, Suède (2574): reduced air pressure: 12.06.2018 15:00:00 - 18.06.2018 15:00:00 (CEST)Norrkoping, Suède (2574): visibility: 12.06.2018 15:00:00 - 18.06.2018 15:00:00 (CEST)Norrkoping, Suède (2574): Quantités de précipitations: 12.06.2018 15:00:00 - 18.06.2018 15:00:00 (CEST)
Date & Time tt [°C] td [°C] ff [km/h] ff [knt] fx [km/h] fx [knt] dd ppp [hPa] vv [km] rr [mm]
18.06.2018 15:00:00 - - - - - - - - - -
18.06.2018 14:00:00 18,3 8,3 13 7 33 18 WSW 1012,9 43 0,0
18.06.2018 13:00:00 17,9 8,5 16 8 37 20 WSW 1013,0 37 0,0
18.06.2018 12:00:00 16,0 9,4 16 9 31 17 WSW 1013,2 50 0,0
18.06.2018 11:00:00 16,2 9,6 13 7 28 15 WSW 1013,0 33 0,0
18.06.2018 10:00:00 15,3 8,8 14 8 30 16 WSW 1013,0 46 0,0
18.06.2018 09:00:00 15,9 7,9 12 7 29 16 WSW 1012,8 37 0,0
18.06.2018 08:00:00 14,6 8,3 13 7 26 14 WSW 1012,7 39 0,0
18.06.2018 07:00:00 13,5 9,4 10 5 19 10 SW 1012,8 35 0,0
18.06.2018 06:00:00 11,5 8,9 8 4 18 10 SSW 1012,8 48 0,0
18.06.2018 05:00:00 10,3 8,1 8 4 15 8 SSW 1012,7 50 0,0
18.06.2018 04:00:00 9,7 7,5 6 4 12 6 SSW 1012,6 50 0,0
18.06.2018 03:00:00 10,1 7,5 6 3 13 7 SSW 1012,7 50 0,0
18.06.2018 02:00:00 10,5 7,6 6 3 16 9 SSW 1012,7 50 0,0
18.06.2018 01:00:00 11,2 7,3 8 5 19 10 SW 1012,4 50 0,0
18.06.2018 00:00:00 11,6 8,1 8 5 20 11 SSW 1012,0 50 0,0
17.06.2018 23:00:00 12,4 8,9 8 5 28 15 WSW 1011,7 50 0,0
17.06.2018 22:00:00 14,3 11,5 11 6 24 13 WSW 1011,2 50 0,0
17.06.2018 21:00:00 13,8 11,8 6 3 35 19 SW 1010,6 49 1,1
17.06.2018 20:00:00 17,6 13,9 7 4 23 13 WSW 1010,0 43 0,0
17.06.2018 19:00:00 18,0 14,9 7 4 17 9 S 1009,8 34 0,0
17.06.2018 18:00:00 16,6 14,2 8 4 24 13 SE 1010,1 26 0,0
17.06.2018 17:00:00 15,6 12,2 10 6 23 13 ESE 1010,3 39 0,0
17.06.2018 16:00:00 13,7 11,9 9 5 23 13 E 1011,1 33 2,5
17.06.2018 15:00:00 13,2 10,9 9 5 24 13 ESE 1012,5 7 4,1
17.06.2018 14:00:00 14,7 11,8 5 3 16 9 ESE 1012,6 13 0,5
17.06.2018 13:00:00 15,6 9,9 9 5 19 11 SE 1012,7 32 0,3
17.06.2018 12:00:00 18,4 10,2 10 6 22 12 ESE 1013,1 32 0,0
17.06.2018 11:00:00 19,0 10,0 9 5 18 10 E 1013,4 40 0,0
17.06.2018 10:00:00 18,2 10,6 5 3 12 6 E 1013,9 45 0,0
17.06.2018 09:00:00 16,4 10,9 4 2 8 5 E 1014,4 48 0,0
17.06.2018 08:00:00 15,9 11,5 3 2 12 6 E 1014,5 44 0,1
17.06.2018 07:00:00 16,8 10,2 5 3 13 7 SE 1014,9 41 0,0
17.06.2018 06:00:00 16,0 10,3 8 5 16 9 SE 1014,9 41 0,0
17.06.2018 05:00:00 15,1 10,1 6 4 14 8 SE 1015,5 50 0,0
17.06.2018 04:00:00 15,0 8,9 5 3 17 9 ESE 1015,4 50 0,0
17.06.2018 03:00:00 15,5 9,2 8 4 14 8 SE 1015,3 50 0,0
17.06.2018 02:00:00 14,9 8,6 5 3 13 7 SE 1015,7 50 0,0
17.06.2018 01:00:00 14,7 7,7 5 3 12 7 SSE 1016,0 50 0,0
17.06.2018 00:00:00 15,0 7,3 5 3 13 7 SE 1016,3 50 0,0
16.06.2018 23:00:00 16,2 7,4 5 3 11 6 SE 1016,2 50 0,0
16.06.2018 22:00:00 17,6 6,8 6 4 15 8 SE 1016,3 50 0,0
16.06.2018 21:00:00 18,5 6,3 9 5 18 10 SE 1016,2 50 0,0
16.06.2018 20:00:00 19,4 7,2 7 4 16 9 SSE 1016,3 50 0,0
16.06.2018 19:00:00 19,8 7,2 9 5 20 11 SE 1016,2 49 0,0
16.06.2018 18:00:00 20,7 6,6 10 6 22 12 ESE 1016,3 42 0,0
16.06.2018 17:00:00 21,4 7,2 9 5 21 11 ESE 1016,4 36 0,0
16.06.2018 16:00:00 21,6 7,8 6 4 16 9 WNW 1016,5 36 0,0
16.06.2018 15:00:00 20,7 7,7 7 4 19 11 NW 1016,7 45 0,0
16.06.2018 14:00:00 20,9 8,2 6 3 18 10 WNW 1017,0 31 0,0
16.06.2018 13:00:00 19,2 7,9 6 3 18 10 SW 1017,4 50 0,0
16.06.2018 12:00:00 20,3 8,6 6 3 16 9 SW 1017,3 31 0,0
16.06.2018 11:00:00 19,1 8,1 7 4 20 11 W 1017,3 36 0,0
16.06.2018 10:00:00 19,4 7,8 6 3 16 9 SW 1017,4 37 0,0
16.06.2018 09:00:00 17,7 8,3 5 3 10 5 SW 1017,6 40 0,0
16.06.2018 08:00:00 15,9 8,9 5 3 10 5 SW 1017,7 30 0,0
16.06.2018 07:00:00 14,7 8,0 4 2 10 5 SW 1017,5 41 0,0
16.06.2018 06:00:00 12,5 7,0 4 2 8 4 WSW 1017,3 41 0,0
16.06.2018 05:00:00 10,2 6,1 3 1 10 5 SW 1017,2 48 0,0
16.06.2018 04:00:00 11,1 6,0 4 2 7 4 SW 1017,1 50 0,0
16.06.2018 03:00:00 11,9 5,7 3 2 9 5 WSW 1016,8 50 0,0
16.06.2018 02:00:00 13,0 5,6 5 3 13 7 WSW 1016,6 50 0,0
16.06.2018 01:00:00 13,8 7,3 4 2 10 6 WSW 1016,3 47 0,0
16.06.2018 00:00:00 14,0 6,4 6 3 12 6 WSW 1015,8 47 0,0
15.06.2018 23:00:00 14,8 5,6 4 2 8 5 WSW 1015,3 42 0,0
15.06.2018 22:00:00 16,7 5,3 3 2 14 7 W 1014,9 45 0,0
15.06.2018 21:00:00 18,4 5,3 6 3 19 10 W 1014,5 44 0,0
15.06.2018 20:00:00 19,6 5,6 9 5 22 12 WNW 1014,2 47 0,0
15.06.2018 19:00:00 20,4 6,7 8 4 24 13 WNW 1013,8 38 0,0
15.06.2018 18:00:00 22,0 6,6 10 6 30 16 W 1013,5 35 0,0
15.06.2018 17:00:00 22,0 5,4 10 5 35 19 W 1013,4 39 0,0
15.06.2018 16:00:00 21,9 6,5 16 9 33 18 SW 1013,3 32 0,0
15.06.2018 15:00:00 21,2 5,9 20 11 40 22 WSW 1013,4 31 0,0
15.06.2018 14:00:00 20,4 6,3 13 7 41 22 WSW 1013,4 34 0,0
15.06.2018 13:00:00 20,2 6,2 16 9 42 23 WSW 1013,2 32 0,0
15.06.2018 12:00:00 19,5 5,5 13 7 40 21 W 1012,6 13 0,0
15.06.2018 11:00:00 19,0 4,7 14 8 33 18 W 1012,4 30 0,0
15.06.2018 10:00:00 17,9 5,8 13 7 39 21 W 1011,7 25 0,0
15.06.2018 09:00:00 17,2 7,3 15 8 34 18 WSW 1011,3 31 0,0
15.06.2018 08:00:00 16,5 8,2 11 6 31 17 WSW 1010,6 24 0,0
15.06.2018 07:00:00 15,8 9,9 14 8 31 17 WSW 1010,1 28 0,0
15.06.2018 06:00:00 15,2 10,6 11 6 28 15 SW 1009,5 32 0,0
15.06.2018 05:00:00 15,0 11,0 12 6 27 15 SW 1009,0 39 0,0
15.06.2018 04:00:00 15,7 11,1 10 5 31 17 SW 1008,4 50 0,0
15.06.2018 03:00:00 16,4 11,1 13 7 30 16 SSW 1007,9 50 0,0
15.06.2018 02:00:00 16,3 11,4 9 5 19 10 SSW 1007,8 50 0,0
15.06.2018 01:00:00 16,0 11,5 9 5 25 14 S 1007,9 43 0,1
15.06.2018 00:00:00 18,3 9,4 8 4 18 10 SSW 1007,6 50 0,0
14.06.2018 23:00:00 18,6 9,9 9 5 19 10 SSW 1007,5 50 0,0
14.06.2018 22:00:00 18,9 9,4 7 4 17 9 S 1007,7 50 0,0
14.06.2018 21:00:00 19,7 8,4 7 4 21 11 SSW 1007,5 50 0,0
14.06.2018 20:00:00 20,2 7,9 6 4 22 12 SW 1007,6 50 0,0
14.06.2018 19:00:00 20,5 6,8 13 7 25 14 WSW 1007,6 50 0,0
14.06.2018 18:00:00 21,1 7,0 9 5 24 13 SW 1007,8 49 0,0
14.06.2018 17:00:00 21,7 7,9 10 5 24 13 W 1008,2 41 0,0
14.06.2018 16:00:00 22,0 7,8 12 7 26 14 SW 1008,2 43 0,0
14.06.2018 15:00:00 21,0 8,9 11 6 25 14 SW 1008,5 39 0,0
14.06.2018 14:00:00 20,4 10,2 11 6 24 13 WSW 1009,0 36 0,0
14.06.2018 13:00:00 19,4 10,4 8 4 24 13 WSW 1009,3 36 0,0
14.06.2018 12:00:00 18,1 10,7 8 4 19 11 SW 1009,7 37 0,0
14.06.2018 11:00:00 17,2 10,8 11 6 20 11 WSW 1009,9 37 0,0
14.06.2018 10:00:00 16,3 11,7 8 5 16 9 SW 1010,0 30 0,0
14.06.2018 09:00:00 16,0 12,0 6 3 16 9 WSW 1010,0 25 0,0
14.06.2018 08:00:00 15,8 12,5 7 4 16 9 WSW 1010,1 25 0,0
14.06.2018 07:00:00 15,2 12,9 8 4 16 9 SW 1010,0 26 0,0
14.06.2018 06:00:00 14,8 13,5 4 2 10 6 SSW 1009,9 21 0,0
14.06.2018 05:00:00 14,2 13,2 4 2 9 5 SSE 1009,7 19 0,0
14.06.2018 04:00:00 14,1 13,1 2 1 10 5 ESE 1009,8 16 0,0
14.06.2018 03:00:00 14,1 13,0 4 2 15 8 S 1009,6 15 0,0
14.06.2018 02:00:00 14,8 13,5 7 4 17 9 S 1009,2 21 0,0
14.06.2018 01:00:00 14,8 13,8 7 4 16 9 SSE 1009,0 18 0,0
14.06.2018 00:00:00 14,6 13,6 4 2 11 6 SSE 1009,2 29 0,0
13.06.2018 23:00:00 14,7 13,7 5 3 15 8 SE 1009,0 31 0,0
13.06.2018 22:00:00 15,0 13,9 6 3 11 6 SE 1008,9 41 0,0
13.06.2018 21:00:00 15,4 13,9 4 2 11 6 ESE 1009,0 50 0,0
13.06.2018 20:00:00 16,2 13,9 7 4 22 12 SE 1008,6 50 0,0
13.06.2018 19:00:00 16,1 13,6 13 7 25 13 SE 1008,2 50 0,0
13.06.2018 18:00:00 14,7 12,7 11 6 19 10 SE 1008,8 30 2,9
13.06.2018 17:00:00 15,4 12,7 6 4 29 15 SE 1008,9 6 1,6
13.06.2018 16:00:00 17,6 12,3 13 7 31 17 ESE 1007,9 46 0,0
13.06.2018 15:00:00 18,5 12,9 14 8 34 19 ESE 1007,7 38 0,0
13.06.2018 14:00:00 18,6 12,6 14 8 27 15 SE 1007,7 47 0,0
13.06.2018 13:00:00 18,4 11,0 13 7 28 15 ESE 1007,5 50 0,0
13.06.2018 12:00:00 19,8 11,6 12 6 25 13 ESE 1007,6 44 0,0
13.06.2018 11:00:00 18,7 12,7 11 6 26 14 E 1008,0 36 0,0
13.06.2018 10:00:00 17,5 11,1 11 6 21 11 ESE 1008,0 50 0,0
13.06.2018 09:00:00 16,9 11,6 8 4 19 10 ESE 1007,8 50 0,0
13.06.2018 08:00:00 16,7 12,6 5 3 17 9 E 1007,6 47 0,0
13.06.2018 07:00:00 15,3 12,8 6 3 15 8 E 1007,6 48 0,0
13.06.2018 06:00:00 14,4 12,6 3 2 10 5 E 1007,6 45 0,0
13.06.2018 05:00:00 13,9 12,1 4 2 8 5 E 1007,4 50 0,0
13.06.2018 04:00:00 13,2 11,1 3 2 7 4 E 1007,3 50 0,0
13.06.2018 03:00:00 14,3 10,7 4 2 11 6 SE 1007,2 41 0,0
13.06.2018 02:00:00 15,2 10,8 4 2 14 7 E 1007,1 50 0,0
13.06.2018 01:00:00 16,0 11,2 6 4 14 8 ESE 1006,8 50 0,0
13.06.2018 00:00:00 16,3 11,7 4 2 13 7 ESE 1006,6 50 0,0
12.06.2018 23:00:00 17,1 11,4 6 3 16 9 ESE 1006,4 50 0,0
12.06.2018 22:00:00 18,4 11,5 6 3 17 9 E 1006,2 50 0,0
12.06.2018 21:00:00 19,3 11,3 0 0 10 5 N 1005,7 50 0,0
12.06.2018 20:00:00 20,5 9,7 5 3 10 6 W 1005,4 50 0,0
12.06.2018 19:00:00 22,0 10,5 5 3 11 6 WNW 1005,3 47 0,0
12.06.2018 18:00:00 21,7 9,9 5 3 16 9 W 1005,3 44 0,0
12.06.2018 17:00:00 21,7 10,8 6 3 16 9 W 1005,3 45 0,0
12.06.2018 16:00:00 20,8 10,6 7 4 21 11 NW 1005,3 50 0,0
12.06.2018 15:00:00 21,7 10,2 10 5 22 12 NW 1005,3 45 0,0

tt = Température de l'air
td = dewpoint
ff = Vitesse du vent
fx = gusts
dd = Direction du vent
ppp = reduced air pressure
vv = visibility
rr = Quantités de précipitations

stations d'obs. à proximité